sat.trackr.live / text

‹ back to catalog

STARLINK-5653

NORAD 55345 · 2023-013Q

PAYLOAD ACTIVE UNKNOWN

§ Identity

Operator
Country
US
Launch date
2023-01-26
Launch site
AFETR
Launch vehicle
Mass (kg)
RCS (m²)

Purposes: comms

External: N2YO · Heavens-Above · Gunter

§ Orbital elements

Epoch: 2026-09-20T12:08:36.100032Z

Period
94.27 min
Inclination
43.0012°
Eccentricity
0.0000853
Mean motion
15.27575319 rev/d
Perigee alt
482.5 km
Apogee alt
483.6 km
Semi-major
6,861.2 km
B*
2.2302e-5
RAAN
268.8319°
Arg perigee
261.4570°
Mean anomaly
98.6184°
Rev number
20,163

§ Raw data

STARLINK-56531 55345U 23013Q   26263.50597338  .00000352  00000+0  22302-4 0  99922 55345  43.0012 268.8319 0000853 261.4570  98.6184 15.27575319201635

JSON: /api/v1/satellites/55345 · /tle

For live sub-satellite position, see the globe view (requires WebGL).

§ Visibility from observer

Set your observer location to see the next 7 days of passes ≥ 10°. The values pass through the URL so the page stays shareable.

No JS? Fill the form by hand. The geolocation button needs JavaScript.